WetterOnline ( https://www.wetteronline.de )

Wetter aktuell Garmisch-Partenkirchen

Aktuelles Wetter: Garmisch-Partenkirchen (719m)

6-stündlich | Neueste Meldungen
Ortszeit Temperatur Wetter
Do, 12.12. 13:00 2.8° C Sprühregen
Do, 12.12. 7:00 0.1° C Schneefall
Do, 12.12. 1:00 -1.1° C bedeckt
Mi, 11.12. 19:00 -0.7° C bedeckt
Mi, 11.12. 13:00 1.0° C bedeckt
Mi, 11.12. 7:00 -8.2° C wolkig
Mi, 11.12. 1:00 -7.7° C wolkenlos
Di, 10.12. 19:00 -5.2° C wolkenlos
Ortszeit Temperatur Wetter
Do, 12.12. 15:30 1.2° C leichter Schneefall
Do, 12.12. 15:20 1.2° C leichter Schneefall
Do, 12.12. 15:10 1.3° C Sprühregen
Do, 12.12. 15:00 1.5° C bedeckt
Do, 12.12. 14:50 1.5° C bedeckt
Do, 12.12. 14:40 1.7° C Sprühregen
Do, 12.12. 14:30 1.8° C bedeckt
Do, 12.12. 14:00 2.7° C bedeckt
Do, 12.12. 13:30 1.9° C bedeckt
Do, 12.12. 13:00 2.8° C Sprühregen
Do, 12.12. 12:30 2.3° C bedeckt
Ortszeit Relative Feuchte Sichtweite
Do, 12.12. 13:00 82% 45 km
Do, 12.12. 7:00 98% 2.0 km
Do, 12.12. 1:00 98% 15 km
Mi, 11.12. 19:00 97% 8 km
Mi, 11.12. 13:00 84% 60 km
Mi, 11.12. 7:00 92% 65 km
Mi, 11.12. 1:00 94% 35 km
Di, 10.12. 19:00 96% 23 km
Ortszeit Relative Feuchte Sichtweite
Do, 12.12. 15:30 92% 12 km
Do, 12.12. 15:20 92% -
Do, 12.12. 15:10 91% -
Do, 12.12. 15:00 89% 40 km
Do, 12.12. 14:50 89% -
Do, 12.12. 14:40 87% -
Do, 12.12. 14:30 83% 40 km
Do, 12.12. 14:00 82% 45 km
Do, 12.12. 13:30 85% 35 km
Do, 12.12. 13:00 82% 45 km
Do, 12.12. 12:30 85% 21 km
Ortszeit Niederschlagsmenge Niederschlagsart
Do, 12.12. 13:00 0.7 l/m2 in 6 Std. Schnee, Sprühregen
Do, 12.12. 7:00 5 l/m2 in 12 Std. Schnee
Do, 12.12. 1:00 0.0 l/m2 in 6 Std. -
Mi, 11.12. 19:00 0.0 l/m2 in 12 Std. -
Mi, 11.12. 13:00 0.0 l/m2 in 6 Std. -
Mi, 11.12. 7:00 0.0 l/m2 in 12 Std. -
Mi, 11.12. 1:00 0.0 l/m2 in 6 Std. -
Di, 10.12. 19:00 2 l/m2 in 12 Std. -
Ortszeit Niederschlagsmenge Niederschlagsart
Do, 12.12. 15:30 0.1 l/m2 in 1 Std. -
Do, 12.12. 15:20 keine Meldung -
Do, 12.12. 15:10 keine Meldung -
Do, 12.12. 15:00 0.1 l/m2 in 1 Std. Schnee, Sprühregen
Do, 12.12. 14:50 keine Meldung -
Do, 12.12. 14:40 keine Meldung -
Do, 12.12. 14:30 0.1 l/m2 in 1 Std. gefrierender Regen
Do, 12.12. 14:00 0.1 l/m2 in 1 Std. Schnee, Sprühregen
Do, 12.12. 13:30 0.1 l/m2 in 1 Std. Schnee
Do, 12.12. 13:00 0.1 l/m2 in 1 Std. Schnee, Sprühregen
Do, 12.12. 12:30 0.1 l/m2 in 1 Std. -
Ortszeit Stärke Spitze Richtung
km/h Bft. km/h Grad Sektor
Do, 12.12. 13:00 0 0 7 - -
Do, 12.12. 7:00 2 1 7 20° N
Do, 12.12. 1:00 4 1 7 260° W
Mi, 11.12. 19:00 2 1 7 320° NW
Mi, 11.12. 13:00 2 1 11 260° W
Mi, 11.12. 7:00 4 1 7 200° S
Mi, 11.12. 1:00 4 1 7 240° SW
Di, 10.12. 19:00 4 1 7 230° SW
Ortszeit Stärke Spitze Richtung
km/h Bft. km/h Grad Sektor
Do, 12.12. 15:30 4 1 4 230° SW
Do, 12.12. 15:20 4 1 - 230° SW
Do, 12.12. 15:10 4 1 - 230° SW
Do, 12.12. 15:00 4 1 7 200° S
Do, 12.12. 14:50 4 1 - 200° S
Do, 12.12. 14:40 2 1 - 190° S
Do, 12.12. 14:30 0 0 7 - -
Do, 12.12. 14:00 0 0 4 - -
Do, 12.12. 13:30 0 0 4 - -
Do, 12.12. 13:00 0 0 4 - -
Do, 12.12. 12:30 0 0 4 - -
Ortszeit Untergrenze Bedeckung Gattung
total tief tief mittel hoch
Do, 12.12. 13:00 1350 m 7/8 7/8 - - -
Do, 12.12. 7:00 90 m 8/8 8/8 - - -
Do, 12.12. 1:00 900 m 8/8 8/8 - - -
Mi, 11.12. 19:00 4200 m 8/8 8/8 - - -
Mi, 11.12. 13:00 4800 m 8/8 8/8 - - -
Mi, 11.12. 7:00 9000 m 8/8 0/8 - - -
Mi, 11.12. 1:00 - 0/8 0/8 - - -
Di, 10.12. 19:00 - 0/8 0/8 - - -
Ortszeit Bedeckungsgrad in Achtel und Wolkenuntergrenze
Do, 12.12. 15:30 2(210m) 7(720m) 8(1290m)
Do, 12.12. 15:20 2(210m) 7(720m) 8(1290m)
Do, 12.12. 15:10 2(120m) 7(1140m) 8(1500m)
Do, 12.12. 15:00 1(150m) 8(1500m) 8(3000m)
Do, 12.12. 14:50 1(150m) 8(1500m) 8(3000m)
Do, 12.12. 14:40 2(150m) 7(1500m) 8(1800m)
Do, 12.12. 14:30 1(510m) 8(1800m) 8(3900m)
Do, 12.12. 14:00 1(180m) 7(1500m) 8(1800m)
Do, 12.12. 13:30 1(990m) 8(2100m) 8(2700m)
Do, 12.12. 13:00 4(1350m) 7(1800m) 7(2100m)
Do, 12.12. 12:30 2(1140m) 7(1800m) 8(2400m)
Ortszeit Luftdruck NN (hPa) Tendenz (hPa in 3 Std.)
Do, 12.12. 13:00 1007 - 1,6
Do, 12.12. 7:00 1009 + 0,3
Do, 12.12. 1:00 1011 - 1,0
Mi, 11.12. 19:00 1012 - 1,1
Mi, 11.12. 13:00 1014 - 3,6
Mi, 11.12. 7:00 1023 - 2,4
Mi, 11.12. 1:00 1028 - 1,0
Di, 10.12. 19:00 1030 - 1,0
Ortszeit Luftdruck NN (hPa) Tendenz (hPa in 3 Std.)
Do, 12.12. 15:30 1006 - 1,6
Do, 12.12. 15:20 1006 keine Meldung
Do, 12.12. 15:10 1006 keine Meldung
Do, 12.12. 15:00 1006 - 1,7
Do, 12.12. 14:50 1006 keine Meldung
Do, 12.12. 14:40 1006 keine Meldung
Do, 12.12. 14:30 1006 - 2,0
Do, 12.12. 14:00 1006 - 2,0
Do, 12.12. 13:30 1007 - 2,0
Do, 12.12. 13:00 1007 - 1,6
Do, 12.12. 12:30 1007 - 1,2
Ortszeit Schneehöhe (cm)
Do, 12.12. 13:00 10
Do, 12.12. 7:00 9
Do, 12.12. 1:00 4
Mi, 11.12. 19:00 4
Mi, 11.12. 13:00 4
Mi, 11.12. 7:00 5
Mi, 11.12. 1:00 5
Di, 10.12. 19:00 5
Ortszeit Schneehöhe (cm)
Do, 12.12. 15:30 10
Do, 12.12. 15:20 10
Do, 12.12. 15:10 10
Do, 12.12. 15:00 10
Do, 12.12. 14:50 10
Do, 12.12. 14:40 10
Do, 12.12. 14:30 10
Do, 12.12. 14:00 10
Do, 12.12. 13:30 10
Do, 12.12. 13:00 10
Do, 12.12. 12:30 10
Link zu dieser Seite / Seite empfehlen

Das Wetter in ...